Weather Roundup
Issued by NWS

Home | Current Version | Previous Version | Text Only | Print | Product List | Glossary On
Versions: 1 2 3 4 5 6 7 8 9 10 11 12 13 14 15 16 17 18 19 20 21 22 23 24 25 26 27 28 29 30 31 32 33 34 35 36 37 38 39 40 41 42 43 44 45 46 47 48 49 50
000
NZUS93 KARX 061210
HRRWXR

CURRENT HOURLY OBSERVATIONS ACROSS
MUCH OF THE UPPER MISSISSIPPI VALLEY
NATIONAL WEATHER SERVICE LA CROSSE WI
600 AM CST TUE DEC 06 2016


...SOUTHEAST MINNESOTA...


CITY           SKY/WX    TMP DP  RH WIND       PRES   REMARKS
ROCHESTER      LGT SNOW  29  27  92 W17       29.74S FOG     WCI  17
ROCHESTER/MAYO CLOUDY    31  30  97 W13G20    29.74S WCI  21
WINONA         LGT SNOW  34  32  93 SW9       29.76R WCI  26
AUSTIN         CLOUDY    28  25  86 W13       29.76S WCI  18
ALBERT LEA     CLOUDY    30  23  74 W15       29.77S WCI  19
DODGE CENTER   FLURRIES  28  25  86 SW18      29.73F WCI  16
PRESTON        LGT SNOW  30  28  92 W8        29.75S WCI  22
OWATONNA       CLOUDY    28  21  74 SW18G24   29.75S WCI  16
FARIBAULT      CLOUDY    27  21  80 SW12G17   29.76R WCI  16
$$

...ELSEWHERE IN MINNESOTA...


CITY           SKY/WX    TMP DP  RH WIND       PRES   REMARKS
MINNEAPOLIS    CLOUDY    27  18  69 W16G26    29.72S WCI  15
INTNL FALLS    CLOUDY    32  27  81 S14G23    29.44R WCI  22
DULUTH         CLOUDY    31  27  85 SW12      29.54S WCI  22
RED WING       LGT SNOW  32  28  86 W9        29.72F WCI  24
REDWOOD FALLS  CLOUDY    19   9  65 W17G30    29.77S WCI   4
MANKATO        CLOUDY    23  17  78 W13       29.77S WCI  11
WORTHINGTON    FLURRIES  15  10  80 W30G37    29.78F WCI  -5
FAIRMONT       MOCLDY    20  13  74 W18G25    29.80S WCI   5
$$

...SOUTHWEST WISCONSIN...


CITY           SKY/WX    TMP DP  RH WIND       PRES   REMARKS
LA CROSSE      CLOUDY    35  32  88 S13       29.77S FOG     WCI  26
PRAIRIE DU CHI CLOUDY    33  31  93 CALM      29.80S FOG
BOSCOBEL       CLOUDY    33  31  92 SW3       29.81S
LONE ROCK      CLOUDY    32  30  92 E3        29.81F FOG
PLATTEVILLE    CLOUDY    32  32 100 SE6       29.80S VSB 1/2 WCI  26
FORT MC COY    CLOUDY    32  30  93 S6        29.77S WCI  26
CAMP DOUGLAS   CLOUDY    32  28  86 S7        29.77F WCI  26
MAUSTON-NEW LI CLOUDY    32  29  90 S7        29.78S WCI  25
VIROQUA        CLOUDY    30  30 100 S10       29.76R WCI  21
WIS DELLS      CLOUDY    31  30  96 SW8       29.80S FOG     WCI  23
$$

...ELSEWHERE IN WISCONSIN...


CITY           SKY/WX    TMP DP  RH WIND       PRES   REMARKS
MILWAUKEE      CLOUDY    38  33  82 SE8       29.81F WCI  32
MADISON        FRZ DRZL  32  31  96 S7        29.81S FOG     WCI  26
GREEN BAY      CLOUDY    38  35  89 S9        29.82S WCI  31
EAU CLAIRE     LGT SNOW  33  32  96 S10       29.70S FOG     WCI  25
BLACK RVR FLS  CLOUDY    33  32  96 S6        29.74F FOG     WCI  28
MEDFORD        CLOUDY    30  28  94 S13       29.70F FOG     WCI  20
WAUSAU         CLOUDY    30  28  92 S12       29.74F WCI  20
WIS RAPIDS     CLOUDY    31  29  92 S8        29.77F WCI  23
MARSHFIELD     CLOUDY    30  28  92 S12       29.72F WCI  20
RICE LAKE      LGT SNOW  32  31  96 S8        29.68S WCI  25
$$

...NORTHEAST IOWA...


CITY           SKY/WX    TMP DP  RH WIND       PRES   REMARKS
WATERLOO       CLOUDY    32  28  85 W13       29.80F WCI  22
DUBUQUE        SNOW      31  31 100 S6        29.80R VSB 1/2 WCI  25
DECORAH        LGT SNOW  32  32 100 VRB7      29.76S WCI  26
MASON CITY     CLOUDY    27  23  85 W23       29.81S WCI  12
CHARLES CITY   LGT SNOW  30  28  93 W16       29.79F WCI  19
OELWEIN        CLOUDY    32  32 100 W14       29.80R WCI  22
$$

...ELSEWHERE IN IOWA...


CITY           SKY/WX    TMP DP  RH WIND       PRES   REMARKS
DES MOINES     CLOUDY    31  19  61 NW21      29.86S WCI  18
IOWA CITY      CLOUDY    35  33  92 CALM      29.83S FOG
FORT DODGE     CLOUDY    25  16  68 W8        29.86S WCI  16
MARSHALLTOWN   CLOUDY    31  28  89 NW17      29.81F WCI  19
CEDAR RAPIDS   FOG       33  33 100 S5        29.79F VSB 3/4 WCI  29
$$

...NORTHERN ILLINOIS...


CITY           SKY/WX    TMP DP  RH WIND       PRES   REMARKS
CHICAGO-OHARE  PTCLDY    28  28 100 W3        29.80R FOG
CHICAGO-MIDWAY MOCLDY    33  29  85 CALM      29.79F FOG
MOLINE         FOG       34  32  92 CALM      29.82R VSB 3/4
ROCKFORD       FOG       33  32  96 S3        29.83S VSB 1
PEORIA         FOG       32  32 100 N3        29.80F VSB 1/4
$$

NOTE: "FAIR" INDICATES FEW OR NO CLOUDS BELOW 12,000 FEET WITH NO
SIGNIFICANT WEATHER AND/OR OBSTRUCTIONS TO VISIBILITY. WIND
SPEEDS ARE IN MILES-PER-HOUR.




USA.gov is the U.S. government's official web portal to all federal, state and local government web resources and services.